| time (UTC) | temp F | wind direction | speed MPH | gust MPH | rain 1hr in | rain 24hr in | rain mn in | humidity % | barometer mb |
| 20260906211516 | 76 | 21 | 2.0 | 3.0 | 0.00 | 0.00 | 0.00 | 77 | 1021.2 |
| 20260906210016 | 76 | 38 | 2.0 | 5.0 | 0.00 | 0.00 | 0.00 | 77 | 1021.1 |
| 20260906204514 | 76 | 31 | 3.0 | 5.0 | 0.00 | 0.00 | 0.00 | 77 | 1021.0 |
| 20260906203015 | 76 | 44 | 3.0 | 4.0 | 0.00 | 0.00 | 0.00 | 77 | 1020.9 |
| 20260906201514 | 76 | 344 | 1.0 | 3.0 | 0.00 | 0.00 | 0.00 | 77 | 1020.8 |
| 20260906200013 | 77 | 43 | 2.0 | 5.0 | 0.00 | 0.00 | 0.00 | 76 | 1020.7 |
| 20260906194517 | 77 | 42 | 3.0 | 5.0 | 0.00 | 0.00 | 0.00 | 75 | 1020.7 |
| 20260906193012 | 78 | 40 | 2.0 | 5.0 | 0.00 | 0.00 | 0.00 | 75 | 1020.6 |
| 20260906191510 | 78 | 34 | 3.0 | 5.0 | 0.00 | 0.00 | 0.00 | 74 | 1020.6 |
| 20260906190011 | 80 | 34 | 2.0 | 4.0 | 0.00 | 0.00 | 0.00 | 72 | 1020.4 |
| 20260906184508 | 81 | 34 | 1.0 | 2.0 | 0.00 | 0.00 | 0.00 | 70 | 1020.2 |
| 20260906183008 | 81 | 34 | 1.0 | 4.0 | 0.00 | 0.00 | 0.00 | 68 | 1020.0 |
| 20260906181514 | 82 | 38 | 2.0 | 4.0 | 0.00 | 0.00 | 0.00 | 66 | 1019.9 |
| 20260906180004 | 84 | 33 | 1.0 | 3.0 | 0.00 | 0.00 | 0.00 | 62 | 1019.8 |
| 20260906174503 | 86 | 33 | 0.0 | 1.0 | 0.00 | 0.00 | 0.00 | 58 | 1019.8 |
| 20260906173003 | 86 | 33 | 0.0 | 3.0 | 0.00 | 0.00 | 0.00 | 57 | 1019.7 |
| 20260906171502 | 86 | 34 | 2.0 | 5.0 | 0.00 | 0.00 | 0.00 | 54 | 1019.6 |
| 20260906170004 | 87 | 40 | 2.0 | 5.0 | 0.00 | 0.00 | 0.00 | 54 | 1019.5 |
| 20260906164501 | 87 | 24 | 2.0 | 4.0 | 0.00 | 0.00 | 0.00 | 53 | 1019.4 |
| 20260906163001 | 88 | 29 | 3.0 | 6.0 | 0.00 | 0.00 | 0.00 | 52 | 1019.3 |
| 20260906161609 | 88 | 31 | 1.0 | 5.0 | 0.00 | 0.00 | 0.00 | 52 | 1019.3 |
| 20260906160100 | 88 | 105 | 2.0 | 4.0 | 0.00 | 0.00 | 0.00 | 52 | 1019.3 |
| 20260906154559 | 88 | 180 | 1.0 | 6.0 | 0.00 | 0.00 | 0.00 | 53 | 1019.3 |
| 20260906153058 | 88 | 250 | 2.0 | 9.0 | 0.00 | 0.00 | 0.00 | 52 | 1019.3 |
| 20260906151557 | 88 | 85 | 1.0 | 7.0 | 0.00 | 0.00 | 0.00 | 52 | 1019.3 |
| 20260906150057 | 88 | 137 | 3.0 | 8.0 | 0.00 | 0.00 | 0.00 | 52 | 1019.4 |
| 20260906144558 | 88 | 176 | 4.0 | 8.0 | 0.00 | 0.00 | 0.00 | 52 | 1019.4 |
| 20260906143057 | 88 | 111 | 5.0 | 9.0 | 0.00 | 0.00 | 0.00 | 52 | 1019.5 |
| 20260906141559 | 88 | 155 | 3.0 | 6.0 | 0.00 | 0.00 | 0.00 | 53 | 1019.6 |
| 20260906140104 | 88 | 9 | 1.0 | 5.0 | 0.00 | 0.00 | 0.00 | 53 | 1019.7 |
| 20260906134604 | 87 | 106 | 4.0 | 8.0 | 0.00 | 0.00 | 0.00 | 53 | 1019.9 |
| 20260906133054 | 87 | 137 | 3.0 | 8.0 | 0.00 | 0.00 | 0.00 | 53 | 1019.9 |
| 20260906131551 | 87 | 34 | 1.0 | 7.0 | 0.00 | 0.00 | 0.00 | 53 | 1020.1 |
| 20260906130104 | 87 | 106 | 4.0 | 8.0 | 0.00 | 0.00 | 0.00 | 53 | 1020.2 |
| 20260906124547 | 87 | 173 | 4.0 | 8.0 | 0.00 | 0.00 | 0.00 | 53 | 1020.3 |
| 20260906123046 | 87 | 164 | 2.0 | 6.0 | 0.00 | 0.00 | 0.00 | 54 | 1020.4 |
| 20260906121550 | 87 | 148 | 1.0 | 7.0 | 0.00 | 0.00 | 0.00 | 54 | 1020.4 |
| 20260906120041 | 86 | 43 | 3.0 | 6.0 | 0.00 | 0.00 | 0.00 | 55 | 1020.5 |
| 20260906114548 | 85 | 144 | 5.0 | 8.0 | 0.00 | 0.00 | 0.00 | 55 | 1020.7 |
| 20260906113046 | 86 | 145 | 3.0 | 8.0 | 0.00 | 0.00 | 0.00 | 54 | 1020.7 |
| 20260906111540 | 86 | 117 | 3.0 | 7.0 | 0.00 | 0.00 | 0.00 | 54 | 1020.8 |
| 20260906110039 | 85 | 107 | 3.0 | 9.0 | 0.00 | 0.00 | 0.00 | 54 | 1020.8 |
| 20260906104540 | 85 | 209 | 4.0 | 9.0 | 0.00 | 0.00 | 0.00 | 53 | 1020.8 |
| 20260906103037 | 84 | 200 | 3.0 | 7.0 | 0.00 | 0.00 | 0.00 | 55 | 1020.9 |
| 20260906101536 | 84 | 217 | 1.0 | 7.0 | 0.00 | 0.00 | 0.00 | 55 | 1021.1 |
| 20260906100035 | 84 | 196 | 3.0 | 7.0 | 0.00 | 0.00 | 0.00 | 55 | 1021.2 |
| 20260906094541 | 85 | 211 | 2.0 | 4.0 | 0.00 | 0.00 | 0.00 | 56 | 1021.3 |
| 20260906093033 | 84 | 140 | 3.0 | 7.0 | 0.00 | 0.00 | 0.00 | 55 | 1021.4 |
| 20260906091535 | 84 | 158 | 3.0 | 9.0 | 0.00 | 0.00 | 0.00 | 55 | 1021.4 |
| 20260906090028 | 84 | 140 | 3.0 | 6.0 | 0.00 | 0.00 | 0.00 | 55 | 1021.4 |
| 20260906084531 | 83 | 50 | 2.0 | 6.0 | 0.00 | 0.00 | 0.00 | 54 | 1021.4 |
| 20260906083021 | 82 | 360 | 3.0 | 6.0 | 0.00 | 0.00 | 0.00 | 54 | 1021.4 |
| 20260906081517 | 81 | 41 | 4.0 | 7.0 | 0.00 | 0.00 | 0.00 | 54 | 1021.3 |
| 20260906080014 | 80 | 22 | 3.0 | 6.0 | 0.00 | 0.00 | 0.00 | 55 | 1021.2 |
| 20260906074511 | 79 | 27 | 3.0 | 6.0 | 0.00 | 0.00 | 0.00 | 56 | 1021.1 |
| 20260906073006 | 78 | 43 | 4.0 | 7.0 | 0.00 | 0.00 | 0.00 | 56 | 1021.0 |
| 20260906071504 | 77 | 355 | 3.0 | 8.0 | 0.00 | 0.00 | 0.00 | 58 | 1021.0 |
| 20260906070004 | 76 | 351 | 3.0 | 6.0 | 0.00 | 0.00 | 0.00 | 60 | 1020.9 |
| 20260906064507 | 75 | 360 | 3.0 | 6.0 | 0.00 | 0.00 | 0.00 | 60 | 1020.7 |
| 20260906063100 | 74 | 5 | 2.0 | 5.0 | 0.00 | 0.00 | 0.00 | 63 | 1020.7 |
| 20260906061556 | 73 | 41 | 3.0 | 6.0 | 0.00 | 0.00 | 0.00 | 63 | 1020.6 |
| 20260906060138 | 72 | 34 | 3.0 | 5.0 | 0.00 | 0.00 | 0.00 | 63 | 1020.4 |
| 20260906054553 | 72 | 35 | 2.0 | 6.0 | 0.00 | 0.00 | 0.00 | 64 | 1020.1 |
| 20260906053050 | 71 | 41 | 3.0 | 6.0 | 0.00 | 0.00 | 0.00 | 64 | 1020.0 |
| 20260906051546 | 71 | 355 | 3.0 | 4.0 | 0.00 | 0.00 | 0.00 | 64 | 1019.7 |
| 20260906050046 | 71 | 355 | 3.0 | 4.0 | 0.00 | 0.00 | 0.00 | 64 | 1019.5 |
| 20260906044544 | 72 | 5 | 2.0 | 5.0 | 0.00 | 0.00 | 0.00 | 62 | 1019.3 |
| 20260906043041 | 71 | 22 | 5.0 | 8.0 | 0.00 | 0.00 | 0.00 | 64 | 1019.1 |
| 20260906041539 | 70 | 347 | 3.0 | 5.0 | 0.00 | 0.00 | 0.00 | 64 | 1019.1 |
| 20260906040041 | 71 | 355 | 3.0 | 6.0 | 0.00 | 0.00 | 0.00 | 63 | 1019.0 |
| 20260906034541 | 71 | 345 | 3.0 | 6.0 | 0.00 | 0.00 | 0.00 | 63 | 1019.0 |
| 20260906033036 | 71 | 36 | 3.0 | 6.0 | 0.00 | 0.00 | 0.00 | 62 | 1018.9 |
| 20260906031603 | 71 | 360 | 3.0 | 7.0 | 0.00 | 0.00 | 0.00 | 63 | 1018.8 |
| 20260906030034 | 71 | 5 | 4.0 | 6.0 | 0.00 | 0.00 | 0.00 | 64 | 1018.8 |
| 20260906024538 | 70 | 37 | 3.0 | 5.0 | 0.00 | 0.00 | 0.00 | 65 | 1018.6 |
| 20260906023036 | 71 | 355 | 2.0 | 5.0 | 0.00 | 0.00 | 0.00 | 65 | 1018.6 |
| 20260906021529 | 71 | 44 | 3.0 | 6.0 | 0.00 | 0.00 | 0.00 | 65 | 1018.5 |
| 20260906020027 | 71 | 10 | 3.0 | 5.0 | 0.00 | 0.00 | 0.00 | 64 | 1018.4 |
| 20260906014526 | 71 | 20 | 2.0 | 5.0 | 0.00 | 0.00 | 0.00 | 62 | 1018.2 |
| 20260906013023 | 72 | 355 | 3.0 | 4.0 | 0.00 | 0.00 | 0.00 | 61 | 1018.2 |
| 20260906011521 | 73 | 42 | 3.0 | 5.0 | 0.00 | 0.00 | 0.00 | 59 | 1018.1 |
| 20260906010017 | 74 | 34 | 2.0 | 5.0 | 0.00 | 0.00 | 0.00 | 56 | 1018.1 |
| 20260906004514 | 74 | 31 | 4.0 | 6.0 | 0.00 | 0.00 | 0.00 | 57 | 1017.9 |
| 20260906003015 | 77 | 36 | 1.0 | 5.0 | 0.00 | 0.00 | 0.00 | 51 | 1018.0 |
| 20260906001514 | 77 | 94 | 6.0 | 10.0 | 0.00 | 0.00 | 0.00 | 51 | 1018.1 |
| 20260906000012 | 74 | 126 | 1.0 | 4.0 | 0.00 | 0.00 | 0.00 | 56 | 1017.9 |
| 20260905234509 | 75 | 19 | 1.0 | 3.0 | 0.00 | 0.00 | 0.00 | 55 | 1017.7 |
| 20260905233007 | 76 | 37 | 1.0 | 3.0 | 0.00 | 0.00 | 0.00 | 53 | 1017.7 |
| 20260905231505 | 76 | 355 | 2.0 | 4.0 | 0.00 | 0.00 | 0.00 | 53 | 1017.6 |
| 20260905230004 | 76 | 17 | 2.0 | 4.0 | 0.00 | 0.00 | 0.00 | 54 | 1017.6 |
| 20260905224503 | 76 | 12 | 3.0 | 8.0 | 0.00 | 0.00 | 0.00 | 54 | 1017.4 |
| 20260905223001 | 76 | 34 | 3.0 | 6.0 | 0.00 | 0.00 | 0.00 | 54 | 1017.3 |
| 20260905221612 | 77 | 350 | 4.0 | 8.0 | 0.00 | 0.00 | 0.00 | 54 | 1017.1 |
| 20260905220052 | 81 | 360 | 3.0 | 13.0 | 0.00 | 0.00 | 0.00 | 46 | 1017.2 |
| 20260905214558 | 79 | 46 | 3.0 | 5.0 | 0.00 | 0.00 | 0.00 | 50 | 1017.1 |
| 20260905213048 | 79 | 33 | 4.0 | 10.0 | 0.00 | 0.00 | 0.00 | 48 | 1017.0 |